Winthrop, MA

4:28 AM EST on February 25, 2017 (GMT -0500)
Logan International

Weather History for KBOS - July, 2014

Change the Weather History Date:

Saturday, July 5, 2014

  Actual Average Record
Temperature  
Mean Temperature 70 °F 73 °F  
Max Temperature 80 °F 81 °F 101 °F (1919)
Min Temperature 59 °F 65 °F 52 °F (1933)
Degree Days  
Heating Degree Days 0 0  
Month to date heating degree days 0 0  
Since 1 June heating degree days 28 55  
Since 1 July heating degree days 0 0  
Cooling Degree Days 5 8  
Month to date cooling degree days 57 39  
Year to date cooling degree days 217 205  
Since 1 June cooling degree days 195 175  
Growing Degree Days 20 (Base 50)    
Moisture  
Dew Point 53 °F    
Average Humidity 61    
Maximum Humidity 93    
Minimum Humidity 29    
Precipitation  
Precipitation 0.35 in 0.09 in 1.12 in (1944)
Month to date precipitation 2.51 0.45  
Year to date precipitation 23.08 22.29  
Snow  
Snow 0.00 in 0.00 in 0.00 in (2002)
Month to date snowfall 0.0 0.0  
Since 1 June snowfall 0.0 0.0  
Since 1 July snowfall 0.0 0.0  
Snow Depth 0.00 in    
Sea Level Pressure  
Sea Level Pressure 29.88 in    
Wind  
Wind Speed 17 mph (WNW)    
Max Wind Speed 30 mph    
Max Gust Speed 40 mph    
Visibility 9 miles    
Events Rain    
T = Trace of Precipitation, MM = Missing Value Source: NWS Daily Summary

Daily Weather History Graph

Daily Weather History Graph

Search for Another Location

Airport or City:

Trip Planner

Search our weather history database for the weather conditions in past years. The results will help you decide how hot, cold, wet, or windy it might be!

Date:

Astronomy

Jul. 05, 2014 Rise Set
Actual Time 5:13 AM EDT 8:23 PM EDT
Civil Twilight 4:38 AM EDT 8:58 PM EDT
Nautical Twilight 3:54 AM EDT 9:42 PM EDT
Astronomical Twilight 3:01 AM EDT 10:35 PM EDT
Moon 1:14 PM EDT (7/5) 12:05 AM EDT (7/5)
Length of Visible Light 16h 19m
Length of Day
15h 10m
First Quarter, 52% of the Moon is Illuminated
Jul 5
First Quarter
Jul 12
Full
Jul 18
Last Quarter
Jul 26
New
Aug 3
First Quarter

Hourly Weather History & Observations

Time (EDT) Temp. Dew Point Humidity Pressure Visibility Wind Dir Wind Speed Gust Speed Precip Events Conditions
12:04 AM 64.4 °F 62.6 °F 94% 29.78 in 3.0 mi North 10.4 mph - 0.02 in Rain Rain
12:13 AM 64.4 °F 62.6 °F 94% 29.77 in 6.0 mi North 12.7 mph - 0.03 in Rain Light Rain
12:27 AM 64.4 °F 62.6 °F 94% 29.77 in 10.0 mi NNW 10.4 mph - 0.03 in Rain Light Rain
12:54 AM 64.9 °F 62.1 °F 90% 29.77 in 9.0 mi WNW 9.2 mph - 0.04 in Rain Light Rain
1:10 AM 64.4 °F 62.6 °F 94% 29.76 in 9.0 mi WNW 9.2 mph - 0.00 in Rain Light Rain
1:29 AM 64.4 °F 62.6 °F 94% 29.76 in 3.0 mi NW 12.7 mph - 0.03 in Rain Heavy Rain
1:39 AM 64.4 °F 62.6 °F 94% 29.76 in 4.0 mi WNW 13.8 mph 23.0 mph 0.06 in Rain Rain
1:49 AM 62.6 °F 60.8 °F 94% 29.77 in 4.0 mi WNW 18.4 mph 25.3 mph 0.08 in Rain Rain
1:54 AM 63.0 °F 61.0 °F 93% 29.77 in 5.0 mi WNW 15.0 mph 25.3 mph 0.08 in Rain Rain
2:08 AM 62.6 °F 59.0 °F 88% 29.77 in 5.0 mi NW 13.8 mph 29.9 mph 0.03 in Rain Rain
2:16 AM 62.6 °F 59.0 °F 88% 29.77 in 10.0 mi WNW 16.1 mph 26.5 mph 0.03 in Rain Light Rain
2:25 AM 62.6 °F 57.2 °F 82% 29.77 in 10.0 mi WNW 17.3 mph 24.2 mph 0.03 in   Overcast
2:54 AM 62.1 °F 57.0 °F 84% 29.78 in 10.0 mi WNW 18.4 mph 26.5 mph 0.03 in Rain Light Rain
3:31 AM 60.8 °F 55.4 °F 82% 29.80 in 7.0 mi WNW 12.7 mph - 0.01 in Rain Light Rain
3:54 AM 61.0 °F 55.9 °F 83% 29.81 in 10.0 mi WNW 17.3 mph 24.2 mph 0.01 in Rain Light Rain
4:54 AM 59.0 °F 54.0 °F 83% 29.82 in 8.0 mi WNW 19.6 mph 28.8 mph 0.08 in Rain Light Rain
5:54 AM 60.1 °F 54.0 °F 80% 29.84 in 6.0 mi West 18.4 mph 24.2 mph 0.08 in Rain Rain
6:54 AM 60.1 °F 54.0 °F 80% 29.87 in 9.0 mi West 12.7 mph 20.7 mph 0.05 in Rain Light Rain
7:54 AM 61.0 °F 53.1 °F 75% 29.89 in 10.0 mi West 13.8 mph - 0.02 in   Scattered Clouds
8:54 AM 64.9 °F 51.1 °F 61% 29.93 in 10.0 mi WNW 16.1 mph 25.3 mph N/A   Clear
9:54 AM 69.1 °F 48.0 °F 47% 29.96 in 10.0 mi WNW 15.0 mph 26.5 mph N/A   Partly Cloudy
10:54 AM 72.0 °F 42.1 °F 34% 29.97 in 10.0 mi NW 20.7 mph 28.8 mph N/A   Clear
11:54 AM 73.9 °F 39.9 °F 29% 29.98 in 10.0 mi WNW 18.4 mph 31.1 mph N/A   Partly Cloudy
12:54 PM 75.0 °F 41.0 °F 29% 29.98 in 10.0 mi WNW 19.6 mph 29.9 mph N/A   Partly Cloudy
1:54 PM 75.9 °F 42.1 °F 30% 29.98 in 10.0 mi WNW 16.1 mph 35.7 mph N/A   Scattered Clouds
2:54 PM 78.1 °F 44.1 °F 30% 29.96 in 10.0 mi WNW 17.3 mph 25.3 mph N/A   Mostly Cloudy
3:54 PM 78.1 °F 44.1 °F 30% 29.95 in 10.0 mi West 18.4 mph 26.5 mph N/A   Mostly Cloudy
4:54 PM 79.0 °F 46.0 °F 31% 29.94 in 10.0 mi West 20.7 mph 28.8 mph N/A   Mostly Cloudy
5:54 PM 80.1 °F 46.9 °F 31% 29.92 in 10.0 mi West 16.1 mph 27.6 mph N/A   Scattered Clouds
6:54 PM 79.0 °F 48.9 °F 35% 29.93 in 10.0 mi West 17.3 mph 26.5 mph N/A   Scattered Clouds
7:54 PM 77.0 °F 51.1 °F 40% 29.94 in 10.0 mi West 15.0 mph 23.0 mph N/A   Scattered Clouds
8:54 PM 75.0 °F 53.1 °F 46% 29.94 in 10.0 mi WSW 12.7 mph - N/A   Scattered Clouds
9:54 PM 73.9 °F 53.1 °F 48% 29.97 in 10.0 mi West 16.1 mph - N/A   Partly Cloudy
10:54 PM 73.9 °F 51.1 °F 45% 29.98 in 10.0 mi West 20.7 mph 31.1 mph N/A   Scattered Clouds
11:54 PM 73.0 °F 50.0 °F 44% 30.00 in 10.0 mi West 17.3 mph 25.3 mph N/A   Partly Cloudy